North Las Vegas, NV

5:58 AM PDT on May 25, 2017 (GMT -0700)
North Las Vegas

Weather History for KVGT - October, 2012

Change the Weather History Date:

Tuesday, October 9, 2012

  Actual Average Record
Temperature  
Mean Temperature 74 °F 71 °F  
Max Temperature 88 °F 83 °F 95 °F (2003)
Min Temperature 61 °F 60 °F 53 °F (2013)
Degree Days  
Heating Degree Days 0 0  
Month to date heating degree days 0  
Since 1 July heating degree days 1  
Cooling Degree Days 10 7  
Month to date cooling degree days 76  
Year to date cooling degree days 3206  
Growing Degree Days 24 (Base 50)    
Moisture  
Dew Point 27 °F    
Average Humidity 16    
Maximum Humidity 31    
Minimum Humidity 8    
Precipitation  
Precipitation 0.00 in 0.01 in 0.01 in (2013)
Month to date precipitation 0.08  
Year to date precipitation 4.04  
Sea Level Pressure  
Sea Level Pressure 29.87 in    
Wind  
Wind Speed 6 mph (SSE)    
Max Wind Speed 13 mph    
Max Gust Speed 24 mph    
Visibility 10 miles    
Events      
T = Trace of Precipitation, MM = Missing Value Source: NWS Daily Summary

Daily Weather History Graph

Daily Weather History Graph

Search for Another Location

Airport or City:

Trip Planner

Search our weather history database for the weather conditions in past years. The results will help you decide how hot, cold, wet, or windy it might be!

Date:

Astronomy

Oct. 09, 2012 Rise Set
Actual Time 6:43 AM PDT 6:12 PM PDT
Civil Twilight 6:17 AM PDT 6:37 PM PDT
Nautical Twilight 5:47 AM PDT 7:07 PM PDT
Astronomical Twilight 5:17 AM PDT 7:37 PM PDT
Moon 12:34 AM PDT (10/9) 2:32 PM PDT (10/9)
Length of Visible Light 12h 20m
Length of Day
11h 29m
Waning Crescent, 35% of the Moon is Illuminated
Oct 9
Waning Crescent
Oct 15
New
Oct 21
First Quarter
Oct 29
Full
Nov 6
Last Quarter

Hourly Weather History & Observations

Time (PDT) Temp. Dew Point Humidity Pressure Visibility Wind Dir Wind Speed Gust Speed Precip Events Conditions
12:53 AM 73.4 °F 26.6 °F 18% 29.85 in 10.0 mi South 12.7 mph - N/A   Clear
1:53 AM 75.0 °F 25.0 °F 16% 29.85 in 10.0 mi South 9.2 mph - N/A   Clear
2:53 AM 73.9 °F 26.1 °F 17% 29.85 in 10.0 mi East 3.5 mph - N/A   Clear
3:53 AM 72.0 °F 27.0 °F 19% 29.84 in 10.0 mi Calm Calm - N/A   Clear
4:53 AM 70.0 °F 28.0 °F 21% 29.86 in 10.0 mi North 4.6 mph - N/A   Clear
5:53 AM 66.9 °F 28.9 °F 24% 29.88 in 10.0 mi East 4.6 mph - N/A   Clear
6:53 AM 61.0 °F 30.0 °F 31% 29.91 in 10.0 mi NW 3.5 mph - N/A   Clear
7:53 AM 64.9 °F 30.0 °F 27% 29.92 in 10.0 mi Calm Calm - N/A   Clear
8:53 AM 71.1 °F 30.9 °F 23% 29.93 in 10.0 mi Calm Calm - N/A   Clear
9:53 AM 75.9 °F 30.0 °F 19% 29.93 in 10.0 mi Calm Calm - N/A   Clear
10:53 AM 80.1 °F 25.0 °F 13% 29.92 in 10.0 mi ESE 8.1 mph - N/A   Clear
11:53 AM 82.9 °F 28.0 °F 14% 29.90 in 10.0 mi ESE 9.2 mph - N/A   Clear
12:53 PM 84.9 °F 18.0 °F 8% 29.87 in 10.0 mi SSE 10.4 mph 24.2 mph N/A   Clear
1:53 PM 87.1 °F 24.1 °F 10% 29.84 in 10.0 mi SSE 11.5 mph 21.9 mph N/A   Clear
2:53 PM 88.0 °F 28.0 °F 12% 29.83 in 10.0 mi East 4.6 mph - N/A   Clear
3:53 PM 87.1 °F 30.0 °F 13% 29.82 in 10.0 mi South 3.5 mph - N/A   Clear
4:53 PM 87.1 °F 25.0 °F 10% 29.81 in 10.0 mi South 9.2 mph - N/A   Clear
5:53 PM 86.0 °F 24.1 °F 10% 29.81 in 10.0 mi SW 8.1 mph - N/A   Clear
6:53 PM 84.9 °F 23.0 °F 10% 29.83 in 10.0 mi SSW 9.2 mph - N/A   Clear
7:53 PM 81.0 °F 25.0 °F 13% 29.85 in 10.0 mi SSW 5.8 mph - N/A   Clear
8:53 PM 79.0 °F 26.1 °F 14% 29.87 in 10.0 mi SSW 4.6 mph - N/A   Clear
9:53 PM 77.0 °F 27.0 °F 16% 29.88 in 10.0 mi SSW 5.8 mph - N/A   Clear
10:53 PM 75.9 °F 28.0 °F 17% 29.88 in 10.0 mi Calm Calm - N/A   Clear
11:53 PM 75.0 °F 28.9 °F 18% 29.88 in 10.0 mi Calm Calm - N/A   Clear